Kansas Department of Transportation
RWIS(Road and Runway Information System) Map and Weather Data





Station
Surface
Air
Wind
Site IDSensor TypeLocationTemperature (°F)Temperature (°F)Humidity (%)Speed (mi/h)Gusts (mi/h)DirectionTime
123002AtmosphericBonner Springs 643226EOct 23 2018 3:25PM
123002ApproachBonner Springs88     Oct 23 2018 3:25PM
123002DeckBonner Springs82     Oct 23 2018 3:25PM
123014AtmosphericBull Creek 662469NEOct 23 2018 3:25PM
123014DeckBull Creek84     Oct 23 2018 3:25PM
123014DepartureBull Creek82     Oct 23 2018 3:25PM
123015AtmosphericLeavenworth 643349ENEOct 23 2018 3:25PM
123015DeckLeavenworthUnavailable     Oct 23 2018 3:25PM
123015DepartureLeavenworth75     Oct 23 2018 3:25PM
123020AtmosphericMayetta 642848ENEOct 23 2018 3:25PM
123020RoadwayMayetta90     Oct 23 2018 3:25PM
123020DeckMayetta90     Oct 23 2018 3:25PM
505000AtmosphericKTA 1 733326SEOct 23 2018 3:20PM
505000ApproachKTA 188     Oct 23 2018 3:20PM
505000DeckKTA 193     Oct 23 2018 3:20PM
505001AtmosphericKTA 2 753747SEOct 23 2018 3:20PM
505001ApproachKTA 291     Oct 23 2018 3:20PM
505001DeckKTA 293     Oct 23 2018 3:20PM
505002AtmosphericKTA 3 664647SEOct 23 2018 3:20PM
505002ApproachKTA 393     Oct 23 2018 3:20PM
505002DeckKTA 391     Oct 23 2018 3:20PM
505003AtmosphericKTA 4 723649NOct 23 2018 3:20PM
505003ApproachKTA 490     Oct 23 2018 3:20PM
505003DeckKTA 490     Oct 23 2018 3:20PM
505004AtmosphericKTA 5 6899711EOct 23 2018 3:20PM
505004RoadwayKTA 5Unavailable     Oct 23 2018 3:20PM
505004RoadwayKTA 5Unavailable     Oct 23 2018 3:20PM
505005AtmosphericKTA 6 702400NOct 23 2018 3:20PM
505005Approach KTA 6Unavailable     Oct 23 2018 3:20PM
505005DeckKTA 684     Oct 23 2018 3:20PM
505006AtmosphericKTA 7 663327ENEOct 23 2018 3:20PM
505006ApproachKTA 7Unavailable     Oct 23 2018 3:20PM
505006DeckKTA 7Unavailable     Oct 23 2018 3:20PM
505008AtmosphericKTA 9 681047EOct 23 2018 3:22PM
505008ApproachKTA 984     Oct 23 2018 3:22PM
505008DeckKTA 979     Oct 23 2018 3:22PM
505009AtmosphericKTA 10 731146EOct 23 2018 3:22PM
505009ApproachKTA 1082     Oct 23 2018 3:22PM
505009DeckKTA 1082     Oct 23 2018 3:22PM
505010AtmosphericWebb 752247ENEOct 23 2018 3:25PM
505010DeckWebb90     Oct 23 2018 3:25PM
505010NullWebb90     Oct 23 2018 3:25PM
505014AtmosphericI-135 724648ESEOct 23 2018 3:30PM
505014ApproachI-13586     Oct 23 2018 3:30PM
505014DeckI-135Unavailable     Oct 23 2018 3:30PM
540000AtmosphericBlue Rapids 683128EOct 23 2018 3:25PM
540000DeckBlue Rapids86     Oct 23 2018 3:25PM
540000DepartureBlue Rapids90     Oct 23 2018 3:25PM
540001AtmosphericSabetha 632958NEOct 23 2018 3:25PM
540001ApproachSabetha86     Oct 23 2018 3:25PM
540001DeckSabetha86     Oct 23 2018 3:25PM
540002AtmosphericWestgate 682346NEOct 23 2018 3:25PM
540002DeckWestgate84     Oct 23 2018 3:25PM
540002DepartureWestgateUnavailable     Oct 23 2018 3:25PM
540003AtmosphericEmporia 7041511ESEOct 23 2018 3:25PM
540003ApproachEmporia88     Oct 23 2018 3:25PM
540003DeckEmporia84     Oct 23 2018 3:25PM
540005AtmosphericLawrence 663249NEOct 23 2018 3:25PM
540005ApproachLawrenceUnavailable     Oct 23 2018 3:25PM
540005DeckLawrenceUnavailable     Oct 23 2018 3:25PM
540006AtmosphericTroy 643537NOct 23 2018 3:25PM
540006DeckTroy86     Oct 23 2018 3:25PM
540006DepartureTroy88     Oct 23 2018 3:25PM
540007AtmosphericManhattan 663356EOct 23 2018 3:25PM
540007DepartureManhattan88     Oct 23 2018 3:25PM
540007DeckManhattan90     Oct 23 2018 3:25PM
541001AtmosphericSyracuse 6657914SEOct 23 2018 3:25PM
541001Out of Service for WinterSyracuse86     Oct 23 2018 3:25PM
541001DeckSyracuse81     Oct 23 2018 3:25PM
541002AtmosphericLiberal 7047610SEOct 23 2018 3:25PM
541002ApproachLiberalUnavailable     Oct 23 2018 3:25PM
541002DeckLiberalUnavailable     Oct 23 2018 3:25PM
541003AtmosphericFord 684279SEOct 23 2018 3:25PM
541003DeckFord90     Oct 23 2018 3:25PM
541003DepartureFord90     Oct 23 2018 3:25PM
541004AtmosphericScott 664500NOct 23 2018 3:25PM
541004DepartureScottUnavailable     Oct 23 2018 3:25PM
541005AtmosphericNess 7050412SEOct 23 2018 3:25PM
541005DeckNess86     Oct 23 2018 3:25PM
541005DepartureNess90     Oct 23 2018 3:25PM
541007AtmosphericGarden City 731324ENEOct 23 2018 2:52PM
541007ApproachGarden City84     Oct 23 2018 2:52PM
543000AtmosphericJunction City 703048NNEOct 23 2018 3:25PM
543000ApproachJunction City86     Oct 23 2018 3:25PM
543000DeckJunction City86     Oct 23 2018 3:25PM
543002AtmosphericMcPherson 724848SSEOct 23 2018 3:25PM
543002ApproachMcPherson90     Oct 23 2018 3:25PM
543002DeckMcPherson91     Oct 23 2018 3:25PM
543003AtmosphericSalina 6823711EOct 23 2018 3:25PM
543003DepartureSalina86     Oct 23 2018 3:25PM
543003RoadwaySalinaUnavailable     Oct 23 2018 3:25PM
543004AtmosphericConcordia 6637712EOct 23 2018 3:25PM
543004ApproachConcordiaUnavailable     Oct 23 2018 3:25PM
543004DeckConcordia81     Oct 23 2018 3:25PM
543005AtmosphericPeabody 6839610SOct 23 2018 3:25PM
543005ApproachPeabody95     Oct 23 2018 3:25PM
543005DeckPeabodyUnavailable     Oct 23 2018 3:25PM
560000AtmosphericEdson 6438912SSEOct 23 2018 3:25PM
560000RoadwayEdson79     Oct 23 2018 3:25PM
560000RoadwayEdson84     Oct 23 2018 3:25PM
560001AtmosphericOakley 6456911SEOct 23 2018 3:25PM
560001ApproachOakley82     Oct 23 2018 3:25PM
560001DeckOakley82     Oct 23 2018 3:25PM
560002AtmosphericAtwood 6649714ESEOct 23 2018 3:25PM
560002ApproachAtwood77     Oct 23 2018 3:25PM
560002DeckAtwood82     Oct 23 2018 3:25PM
560003AtmosphericJennings 684327SSEOct 23 2018 3:25PM
560003ApproachJennings95     Oct 23 2018 3:25PM
560003DeckJennings88     Oct 23 2018 3:25PM
560003DeckJennings88     Oct 23 2018 3:25PM
560004AtmosphericWakeeney 665569SEOct 23 2018 3:25PM
560004ApproachWakeeney82     Oct 23 2018 3:25PM
560004DeckWakeeney84     Oct 23 2018 3:25PM
560005AtmosphericWalker 6850610SEOct 23 2018 3:25PM
560005ApproachWalkerUnavailable     Oct 23 2018 3:25PM
560005DeckWalker90     Oct 23 2018 3:25PM
560006AtmosphericBow Creek(Stockton) 683069EOct 23 2018 3:25PM
560006ApproachBow Creek(Stockton)90     Oct 23 2018 3:25PM
560006DeckBow Creek(Stockton)88     Oct 23 2018 3:25PM
560007AtmosphericLebanon 5934710EOct 23 2018 3:25PM
560007ApproachLebanon90     Oct 23 2018 3:25PM
560007DeckLebanon90     Oct 23 2018 3:25PM
560008AtmosphericWallace 643759SEOct 23 2018 3:25PM
560008ApproachWallace84     Oct 23 2018 3:25PM
560008DeckWallace77     Oct 23 2018 3:25PM
572000AtmosphericGreat Bend 7047711SSEOct 23 2018 3:25PM
572000ApproachGreat Bend93     Oct 23 2018 3:25PM
572000DeckGreat Bend91     Oct 23 2018 3:25PM
572001AtmosphericPratt 701315SEOct 23 2018 3:25PM
572001ApproachPratt86     Oct 23 2018 3:25PM
572001DeckPratt84     Oct 23 2018 3:25PM
572002AtmosphericAnthony 705169SEOct 23 2018 3:25PM
572002ApproachAnthony93     Oct 23 2018 3:25PM
572002DeckAnthony120     Oct 23 2018 3:25PM
573001AtmosphericGarnett 682746NEOct 23 2018 3:25PM
573001ApproachGarnett91     Oct 23 2018 3:25PM
573001DeckGarnett88     Oct 23 2018 3:25PM
573002AtmosphericCaney 732624NNEOct 23 2018 3:20PM
573002RoadwayCaney97     Oct 23 2018 3:20PM
573003AtmosphericChetopa 724637EOct 23 2018 3:25PM
573003DeckChetopa93     Oct 23 2018 3:25PM
573003DeckChetopa93     Oct 23 2018 3:25PM
573003DepartureChetopa95     Oct 23 2018 3:25PM
573004AtmosphericChanute 7248511NEOct 23 2018 3:25PM
573004ApproachChanute90     Oct 23 2018 3:25PM
573004DeckChanute90     Oct 23 2018 3:25PM